EW2295 Weather Reports


time (UTC)temp
C
wind
direction
speed
KPH
gust
KPH
rain 1hr
cm
rain 24hr
cm
rain mn
cm
humidity
%
barometer
mb
20240223171555 6 0 0.0 12.9 0.00 0.18 0.00 75 994.7
20240223170059 7 0 1.6 12.9 0.00 0.18 0.00 74 994.6
20240223164559 7 0 3.2 22.5 0.00 0.18 0.00 73 994.5
20240223163056 7 0 3.2 11.3 0.00 0.18 0.00 72 994.4
20240223161557 7 180 1.6 12.9 0.00 0.18 0.00 71 994.4
20240223160100 7 192 0.0 16.1 0.00 0.18 0.00 72 994.2
20240223154557 7 165 0.0 9.7 0.00 0.18 0.00 72 994.2
20240223153102 7 211 0.0 16.1 0.00 0.18 0.00 72 994.3
20240223151609 7 153 1.6 14.5 0.00 0.18 0.00 70 994.2
20240223150104 7 0 3.2 25.7 0.00 0.18 0.00 70 994.1
20240223144605 8 219 3.2 30.6 0.00 0.18 0.00 68 994.1
20240223143058 8 0 8.0 27.4 0.00 0.18 0.00 68 994.0
20240223141553 8 0 0.0 25.7 0.00 0.18 0.00 70 993.9
20240223140105 8 255 8.0 35.4 0.00 0.18 0.00 69 993.9
20240223134558 8 0 0.0 24.1 0.00 0.18 0.00 67 993.7
20240223133104 8 219 11.3 40.2 0.00 0.18 0.00 66 993.6
20240223131605 8 223 11.3 38.6 0.00 0.18 0.00 66 993.5
20240223130132 8 213 6.4 43.5 0.00 0.18 0.00 66 993.6
20240223124546 8 0 6.4 24.1 0.00 0.18 0.00 67 993.7
20240223123153 8 198 1.6 19.3 0.00 0.18 0.00 70 993.6
20240223121555 8 0 4.8 27.4 0.00 0.18 0.00 69 993.6
20240223120102 8 0 0.0 25.7 0.00 0.18 0.00 71 993.6
20240223114555 7 161 3.2 22.5 0.00 0.18 0.00 71 993.8
20240223113103 7 165 8.0 25.7 0.00 0.18 0.00 72 993.9
20240223111552 7 0 1.6 17.7 0.00 0.18 0.00 71 993.7
20240223110044 7 0 3.2 24.1 0.00 0.18 0.00 72 993.8
20240223104548 7 194 0.0 25.7 0.00 0.18 0.00 72 993.9
20240223103056 6 236 3.2 30.6 0.00 0.18 0.00 73 993.9
20240223101552 6 0 4.8 29.0 0.00 0.18 0.00 72 993.7
20240223100103 7 217 1.6 24.1 0.00 0.18 0.00 72 993.7
20240223094554 6 216 3.2 37.0 0.00 0.18 0.00 72 993.4
20240223093054 6 0 12.9 41.8 0.00 0.18 0.00 72 993.3
20240223091559 6 0 3.2 29.0 0.00 0.18 0.00 73 993.2
20240223090107 6 0 8.0 29.0 0.00 0.18 0.00 73 993.4
20240223084553 6 242 0.0 16.1 0.00 0.18 0.00 76 993.1
20240223083100 5 190 4.8 27.4 0.00 0.18 0.00 78 993.1
20240223081558 5 0 3.2 22.5 0.00 0.18 0.00 79 992.8
20240223080110 5 0 0.0 16.1 0.00 0.18 0.00 78 992.9
20240223074600 5 0 4.8 29.0 0.00 0.18 0.00 78 992.7
20240223073106 5 0 0.0 22.5 0.00 0.18 0.00 78 992.9
20240223071603 4 0 0.0 14.5 0.00 0.18 0.00 78 992.9
20240223070056 4 208 0.0 19.3 0.00 0.18 0.00 77 992.8
20240223064605 4 219 3.2 24.1 0.00 0.18 0.00 77 992.6
20240223063102 5 0 3.2 22.5 0.00 0.18 0.00 76 992.7
20240223061551 5 229 3.2 24.1 0.00 0.18 0.00 76 992.5
20240223060051 5 0 6.4 27.4 0.00 0.18 0.00 76 992.7
20240223054545 5 244 11.3 32.2 0.00 0.18 0.00 77 992.6
20240223053054 5 229 9.7 35.4 0.00 0.18 0.00 77 992.7
20240223051554 5 246 11.3 37.0 0.00 0.18 0.00 77 992.7
20240223050052 5 223 16.1 38.6 0.00 0.18 0.00 77 992.7
20240223044548 5 248 12.9 35.4 0.00 0.18 0.00 78 992.6
20240223043050 5 225 9.7 32.2 0.00 0.18 0.00 78 992.7
20240223041557 5 233 11.3 33.8 0.00 0.18 0.00 78 992.5
20240223040052 5 236 9.7 32.2 0.00 0.18 0.00 78 992.2
20240223034607 5 234 14.5 32.2 0.00 0.20 0.00 78 992.1
20240223033049 5 244 9.7 32.2 0.00 0.20 0.00 77 992.1
20240223031546 5 204 17.7 37.0 0.00 0.20 0.00 77 992.0
20240223030103 5 220 12.9 32.2 0.00 0.20 0.00 78 991.8
20240223024600 5 259 19.3 41.8 0.00 0.20 0.00 79 991.3
20240223023101 5 222 9.7 40.2 0.00 0.20 0.00 79 991.3
20240223021556 5 245 12.9 41.8 0.00 0.20 0.00 79 991.1
20240223020129 5 242 8.0 40.2 0.00 0.20 0.00 78 991.1
20240223014601 5 253 12.9 37.0 0.00 0.25 0.00 79 991.0
20240223013113 5 0 14.5 43.5 0.00 0.25 0.00 79 990.7
20240223011554 5 241 11.3 43.5 0.00 0.25 0.00 79 990.8
20240223010055 6 244 17.7 40.2 0.00 0.25 0.00 78 990.6
20240223004554 6 213 17.7 38.6 0.00 0.30 0.00 78 989.9
20240223003109 6 248 27.4 49.9 0.00 0.30 0.00 77 989.4
20240223001607 6 289 20.9 54.7 0.00 0.30 0.00 76 988.8
20240223000115 6 243 22.5 56.3 0.00 0.30 0.00 75 988.2
20240222234549 7 281 22.5 62.8 0.00 0.36 0.00 74 987.5
20240222233047 7 244 35.4 61.2 0.00 0.36 0.00 72 986.9
20240222231605 7 234 33.8 64.4 0.00 0.36 0.00 72 986.6
20240222230105 7 230 29.0 67.6 0.00 0.36 0.00 71 985.9
20240222224600 7 256 20.9 46.7 0.00 0.41 0.36 71 985.4
20240222223055 8 207 14.5 51.5 0.00 0.41 0.36 70 985.2
20240222221546 8 246 27.4 61.2 0.00 0.41 0.36 70 985.2
20240222220050 8 230 14.5 54.7 0.00 0.41 0.36 71 984.9
20240222214555 8 259 38.6 69.2 0.00 0.41 0.36 71 984.5
20240222213049 8 231 22.5 61.2 0.00 0.41 0.36 74 984.3
20240222211553 8 273 19.3 46.7 0.00 0.41 0.36 76 983.7
20240222210047 8 269 25.7 48.3 0.00 0.41 0.36 79 983.3
20240222204552 8 244 19.3 57.9 0.03 0.41 0.36 80 982.8
20240222203056 8 246 24.1 46.7 0.08 0.38 0.33 80 982.4
20240222201558 9 250 25.7 51.5 0.08 0.38 0.33 80 982.1
20240222200053 10 210 20.9 51.5 0.08 0.38 0.33 82 981.4
20240222194552 11 213 16.1 35.4 0.05 0.36 0.30 85 981.4
20240222193103 11 0 6.4 43.5 0.00 0.30 0.25 86 979.8
20240222191553 11 0 12.9 45.1 0.00 0.30 0.25 88 980.1
20240222190050 11 185 3.2 25.7 0.00 0.30 0.25 88 980.3
20240222184603 11 211 6.4 40.2 0.00 0.33 0.25 88 980.2
20240222183047 11 0 8.0 30.6 0.08 0.33 0.25 88 980.4
20240222181605 11 209 4.8 25.7 0.08 0.33 0.25 87 980.1
20240222180052 11 186 6.4 20.9 0.08 0.33 0.25 86 980.7
20240222174604 11 0 3.2 25.7 0.08 0.33 0.25 85 981.2
20240222173048 11 0 4.8 38.6 0.00 0.25 0.18 84 982.3